GFSNGP_850_dewp_075.txt.gz
Dewpoint
4 3 4 5 6 7 7 7 10 8 6 7 6 5 3 3 3 3 3 4 4 4 3 6 7 7 7 7 7 7 7 6 8 8 8 8 8 8 9 9 9 9 8 8
4 2 4 6 6 7 8 6 7 7 8 6 5 5 3 3 3 3 4 4 5 6 5 5 6 7 9 8 8 8 8 8 7 7 8 9 9 8 8 8 9 9 9 9
5 4 5 7 7 8 7 7 7 9 7 6 7 4 3 3 3 3 4 4 6 6 6 6 6 6 5 6 8 9 8 8 8 8 7 7 8 9 8 9 9 8 9 9
5 5 8 5 3 5 7 7 6 6 6 5 5 2 2 2 2 3 5 6 6 4 2 4 4 4 4 5 5 5 9 9 9 8 8 8 7 8 8 9 9 9 9 9
4 5 4 5 6 6 7 7 5 7 6 5 5 3 2 3 3 5 6 6 6 5 3 3 2 5 7 7 6 5 6 8 9 9 9 9 8 8 8 8 9 9 9 10
5 6 7 5 5 3 4 8 4 4 4 4 2 5 3 3 2 3 5 5 5 4 4 3 4 5 6 6 6 6 6 6 6 7 9 10 10 9 9 9 9 9 9 10
4 5 4 4 4 2 7 7 6 4 2 1 2 2 3 2 1 1 2 2 3 3 2 3 5 5 5 5 5 6 7 7 8 7 7 9 9 10 10 10 10 9 10 10
3 4 4 4 5 7 6 4 2 2 2 1 1 1 1 0 0 0 0 0 0 1 1 3 4 4 5 5 5 5 5 5 4 6 7 7 8 9 9 9 10 10 10 10
1 2 4 4 5 2 1 1 1 1 1 1 0 0 -0 -1 -1 -1 -1 -1 -0 0 0 1 2 3 3 3 3 3 3 2 2 2 2 4 6 7 8 9 8 7 6 5
2 4 3 2 1 1 1 1 0 -0 -0 -1 -1 -1 -1 -2 -2 -1 -1 -1 -1 -0 -0 0 1 1 1 1 1 2 2 2 2 2 2 2 1 3 4 5 5 3 2 1
3 2 2 2 0 0 -0 -0 -1 -1 -1 -2 -2 -2 -2 -3 -3 -2 -2 -2 -2 -2 -2 -2 -1 -0 0 0 0 1 1 1 1 1 -0 -0 -1 -1 -1 -1 -0 1 0 -2
4 2 1 1 -0 -1 -1 -1 -2 -2 -3 -3 -3 -4 -3 -4 -4 -4 -5 -4 -3 -4 -4 -5 -4 -3 -2 -1 -1 -1 -0 -1 -1 -1 -2 -3 -3 -3 -5 -5 -5 -4 -4 -3
1 0 -1 -1 -2 -2 -2 -3 -3 -4 -4 -5 -5 -5 -5 -5 -6 -6 -6 -6 -6 -6 -6 -6 -6 -6 -5 -4 -3 -3 -3 -4 -4 -4 -4 -5 -5 -6 -6 -7 -6 -7 -8 -7
-2 -1 -2 -3 -3 -3 -2 -3 -4 -5 -5 -5 -7 -6 -6 -7 -8 -8 -8 -8 -8 -8 -7 -8 -8 -8 -7 -6 -6 -6 -6 -6 -6 -7 -7 -7 -7 -8 -8 -8 -8 -9 -9 -9
-4 -3 -3 -4 -5 -5 -4 -4 -5 -6 -7 -7 -8 -9 -9 -9 -9 -9 -9 -9 -8 -8 -8 -8 -8 -8 -8 -8 -8 -8 -8 -8 -8 -8 -8 -8 -8 -9 -9 -10 -10 -10 -10 -10
-5 -5 -4 -4 -5 -6 -6 -6 -7 -8 -8 -9 -10 -10 -11 -10 -10 -10 -10 -9 -9 -9 -9 -9 -9 -9 -8 -8 -8 -8 -9 -9 -9 -9 -9 -9 -10 -10 -10 -11 -11 -11 -12 -12
-6 -6 -6 -5 -7 -8 -8 -8 -9 -9 -9 -10 -10 -11 -11 -11 -11 -11 -11 -11 -10 -10 -10 -10 -10 -10 -9 -9 -9 -9 -9 -9 -9 -10 -10 -10 -11 -11 -12 -12 -12 -13 -13 -13
-8 -8 -7 -7 -8 -9 -10 -11 -11 -11 -11 -11 -11 -11 -11 -11 -12 -12 -12 -11 -11 -10 -11 -11 -11 -11 -10 -10 -10 -10 -10 -10 -11 -11 -11 -11 -12 -13 -13 -13 -14 -14 -15 -15
-10 -10 -10 -10 -10 -11 -11 -12 -12 -12 -12 -12 -12 -12 -12 -12 -12 -12 -12 -11 -11 -12 -14 -16 -18 -17 -16 -14 -13 -13 -13 -12 -13 -13 -13 -13 -14 -14 -15 -15 -16 -17 -18 -20
-11 -11 -11 -12 -12 -12 -12 -12 -12 -12 -12 -12 -12 -13 -13 -13 -13 -13 -13 -14 -18 -24 -27 -25 -25 -24 -23 -19 -19 -18 -17 -17 -17 -17 -17 -16 -16 -16 -17 -17 -17 -18 -18 -18
-12 -12 -12 -12 -12 -12 -12 -12 -12 -12 -13 -13 -13 -13 -13 -16 -21 -23 -25 -28 -30 -31 -30 -29 -27 -24 -23 -22 -22 -21 -20 -19 -18 -17 -17 -18 -18 -18 -18 -18 -18 -18 -19 -19
-12 -12 -12 -12 -12 -12 -12 -12 -12 -13 -13 -13 -14 -16 -17 -17 -17 -22 -30 -30 -31 -31 -31 -29 -27 -24 -22 -23 -24 -24 -22 -21 -20 -20 -19 -19 -19 -19 -19 -20 -20 -20 -20 -20
-12 -12 -12 -12 -12 -13 -13 -13 -13 -14 -16 -17 -17 -16 -16 -18 -21 -25 -29 -27 -28 -31 -31 -30 -28 -26 -24 -25 -24 -23 -23 -24 -23 -22 -23 -22 -23 -23 -22 -22 -23 -24 -24 -24
-12 -12 -13 -13 -13 -14 -15 -16 -17 -18 -18 -19 -18 -15 -16 -16 -18 -23 -26 -26 -25 -22 -28 -28 -27 -26 -25 -25 -25 -26 -24 -23 -22 -22 -21 -21 -21 -21 -22 -23 -24 -24 -25 -26
-12 -11 -12 -12 -12 -13 -14 -14 -14 -14 -15 -16 -17 -19 -19 -20 -21 -20 -23 -22 -21 -22 -22 -23 -25 -26 -27 -27 -24 -24 -25 -24 -24 -25 -25 -25 -24 -25 -25 -25 -26 -27 -28 -27
-12 -13 -12 -12 -13 -13 -14 -13 -13 -14 -14 -15 -16 -17 -18 -18 -19 -19 -19 -19 -19 -20 -20 -22 -22 -22 -24 -25 -25 -24 -24 -24 -24 -25 -26 -26 -25 -26 -27 -27 -27 -27 -27 -27
-13 -13 -13 -14 -15 -16 -15 -14 -14 -15 -15 -16 -16 -17 -18 -18 -19 -19 -19 -19 -20 -20 -20 -20 -20 -20 -21 -22 -22 -23 -23 -23 -24 -24 -25 -25 -25 -25 -26 -26 -27 -27 -27 -26

GFSNGP_850_dewp_078.txt.gz
Dewpoint
3 3 3 3 6 5 6 7 8 5 7 8 9 8 6 4 5 6 7 7 7 8 8 8 8 8 8 8 8 8 8 8 6 5 7 8 8 7 8 8 8 8 8 9
3 1 3 5 5 3 4 6 6 6 8 6 8 7 5 3 5 7 7 6 6 6 6 8 8 9 9 9 9 8 8 8 9 8 8 8 8 8 8 7 7 9 9 9
3 3 3 6 5 4 4 6 6 8 5 7 8 7 6 3 5 7 6 5 4 5 6 6 7 7 6 7 8 9 9 9 9 9 9 9 9 8 9 9 8 8 7 8
3 4 6 6 2 6 8 7 6 6 7 7 5 5 4 6 7 6 5 4 4 4 5 6 7 7 7 7 6 8 10 10 9 9 9 9 10 9 9 9 9 9 9 8
2 4 1 3 6 7 6 6 7 7 7 6 4 2 2 3 5 4 3 2 3 3 4 4 4 5 5 5 6 6 6 8 8 9 9 9 9 9 10 10 10 9 9 9
3 4 3 5 4 4 5 7 5 6 6 6 4 5 2 1 2 2 2 2 2 2 3 4 4 4 4 4 4 5 6 6 7 7 7 7 9 10 10 10 10 10 10 10
2 4 3 1 4 5 7 7 4 4 4 4 4 2 0 -1 -0 0 0 0 0 1 2 3 4 4 4 4 4 3 3 3 4 5 6 7 7 8 9 9 9 9 10 10
3 4 3 3 5 6 5 4 4 3 3 3 1 0 -0 -1 -1 -1 -0 0 1 1 2 2 3 3 2 3 2 2 2 2 2 2 2 4 6 7 7 7 8 8 8 8
1 2 4 4 5 4 3 2 1 2 1 1 -0 -1 -2 -2 -1 -1 -0 -0 -0 0 1 1 2 2 2 1 1 1 2 2 2 2 1 1 2 4 6 6 6 6 6 4
2 3 3 2 2 2 1 -1 -1 -1 -1 -1 -2 -3 -3 -3 -3 -3 -2 -2 -1 -1 -1 -0 0 1 1 1 1 1 1 1 1 1 0 -0 -0 -0 -0 0 1 1 0 0
3 1 1 0 0 -0 -1 -1 -1 -2 -2 -3 -3 -4 -3 -4 -4 -4 -4 -3 -3 -2 -2 -3 -2 -1 -1 -0 0 1 1 1 0 -0 -1 -1 -2 -2 -3 -3 -3 -3 -3 -3
3 -0 0 -0 -1 -2 -2 -4 -3 -3 -3 -4 -4 -4 -4 -5 -5 -6 -6 -6 -5 -5 -5 -5 -4 -4 -4 -3 -2 -2 -1 -2 -2 -2 -3 -3 -5 -5 -6 -6 -5 -5 -6 -6
-1 -1 -1 -2 -2 -2 -3 -4 -4 -4 -5 -5 -5 -5 -6 -7 -7 -7 -7 -7 -7 -7 -7 -7 -7 -6 -6 -5 -5 -4 -4 -4 -4 -5 -5 -5 -6 -7 -8 -8 -8 -8 -8 -8
-2 -1 -3 -4 -4 -3 -4 -4 -5 -6 -6 -7 -7 -7 -8 -8 -8 -8 -8 -8 -8 -8 -8 -8 -8 -8 -7 -7 -7 -7 -7 -7 -7 -7 -7 -7 -7 -8 -8 -8 -8 -8 -8 -8
-3 -4 -5 -5 -4 -4 -5 -6 -6 -8 -8 -8 -9 -9 -9 -9 -9 -9 -9 -9 -9 -9 -9 -8 -8 -8 -8 -8 -8 -8 -8 -8 -8 -8 -8 -8 -8 -8 -9 -9 -9 -10 -10 -10
-5 -4 -5 -6 -6 -6 -7 -7 -8 -9 -9 -10 -10 -10 -10 -10 -10 -10 -10 -9 -9 -9 -10 -9 -9 -9 -9 -9 -9 -9 -9 -9 -9 -9 -9 -9 -9 -9 -9 -10 -10 -10 -10 -11
-6 -7 -6 -7 -8 -8 -9 -9 -9 -9 -10 -10 -11 -11 -11 -11 -11 -11 -11 -10 -10 -10 -10 -10 -10 -10 -10 -9 -9 -9 -9 -9 -9 -10 -10 -10 -11 -11 -11 -11 -12 -12 -12 -13
-8 -8 -8 -9 -10 -10 -11 -11 -11 -11 -11 -11 -11 -11 -11 -11 -11 -12 -12 -11 -11 -11 -11 -11 -11 -11 -10 -10 -10 -10 -10 -11 -11 -11 -12 -12 -12 -13 -13 -14 -14 -15 -15 -16
-10 -10 -10 -10 -11 -12 -12 -12 -12 -12 -12 -12 -11 -12 -12 -12 -12 -12 -12 -12 -11 -12 -17 -24 -25 -24 -23 -19 -17 -15 -13 -13 -13 -13 -13 -14 -14 -15 -15 -16 -18 -20 -20 -21
-11 -11 -12 -12 -12 -12 -12 -12 -12 -12 -12 -12 -12 -12 -12 -12 -13 -14 -19 -24 -28 -29 -26 -25 -25 -26 -23 -20 -19 -19 -19 -19 -19 -18 -17 -17 -18 -18 -18 -18 -19 -20 -21 -21
-12 -12 -12 -12 -12 -12 -12 -12 -12 -12 -13 -13 -13 -14 -16 -19 -22 -25 -27 -29 -30 -28 -26 -25 -25 -25 -23 -22 -22 -21 -20 -19 -19 -19 -19 -19 -19 -19 -19 -19 -20 -20 -20 -21
-12 -12 -12 -12 -12 -12 -13 -13 -13 -13 -13 -14 -17 -19 -19 -19 -20 -25 -31 -30 -30 -28 -26 -27 -26 -26 -24 -24 -24 -25 -24 -23 -22 -21 -21 -21 -21 -21 -20 -20 -21 -22 -21 -22
-12 -12 -12 -13 -13 -13 -13 -14 -15 -16 -17 -17 -16 -16 -16 -18 -21 -26 -28 -26 -29 -29 -28 -29 -29 -27 -25 -26 -27 -26 -25 -25 -25 -25 -25 -24 -24 -23 -23 -23 -23 -24 -25 -25
-13 -13 -13 -14 -15 -16 -16 -15 -16 -16 -16 -17 -19 -18 -17 -18 -18 -24 -25 -23 -21 -23 -27 -26 -25 -25 -26 -27 -26 -26 -26 -26 -26 -26 -26 -28 -27 -26 -26 -26 -26 -27 -27 -27
-12 -12 -12 -13 -13 -13 -13 -14 -14 -15 -15 -15 -16 -17 -19 -19 -20 -20 -21 -21 -21 -21 -21 -21 -23 -25 -26 -25 -25 -26 -25 -24 -24 -25 -26 -27 -27 -26 -26 -27 -27 -28 -27 -27
-12 -12 -13 -13 -13 -13 -14 -13 -14 -15 -15 -15 -16 -17 -18 -19 -20 -19 -20 -20 -20 -20 -20 -21 -21 -21 -22 -22 -22 -23 -23 -24 -24 -24 -24 -24 -25 -25 -25 -26 -26 -27 -27 -27
-13 -13 -13 -14 -15 -15 -16 -15 -14 -15 -16 -16 -17 -17 -18 -19 -19 -19 -19 -20 -20 -20 -20 -20 -21 -21 -21 -21 -22 -22 -22 -23 -23 -23 -24 -25 -25 -26 -26 -26 -26 -27 -27 -27

GFSNGP_850_dewp_081.txt.gz
Dewpoint
3 2 2 3 3 3 4 4 6 3 7 6 7 7 6 7 7 6 7 7 8 9 9 9 9 9 9 9 9 8 8 8 8 7 7 8 8 8 8 8 8 8 8 8
3 1 1 3 -0 1 3 4 4 4 6 5 7 7 7 6 6 5 5 5 5 7 8 9 9 9 9 9 9 8 9 9 9 9 8 8 8 8 8 8 8 8 8 8
2 0 1 3 4 4 4 4 3 5 4 7 8 8 7 7 5 4 4 3 3 5 5 7 7 8 8 9 9 9 9 9 9 9 9 9 9 9 9 9 9 9 8 8
2 1 0 0 3 4 5 5 5 5 4 5 6 5 5 5 4 2 2 1 3 3 4 6 6 7 6 8 9 9 9 9 9 9 9 9 9 9 9 9 10 10 9 9
2 2 -1 -2 4 5 5 6 4 6 6 4 3 2 2 2 2 1 1 1 2 3 4 4 5 5 5 6 6 7 8 8 8 8 9 9 9 9 9 9 9 9 9 9
2 3 1 1 3 3 3 7 5 5 5 4 4 4 2 -0 -0 -1 -0 1 2 3 3 3 3 3 3 3 3 4 4 5 6 7 7 7 8 8 9 9 9 9 9 9
1 2 1 0 5 3 7 6 4 5 5 3 2 1 -1 -0 -2 -1 -0 1 1 2 2 2 3 3 3 3 2 2 2 2 2 3 4 5 6 6 7 7 8 8 8 8
2 3 2 4 4 5 4 4 3 3 2 1 -0 -1 -2 -2 -2 -1 -1 -0 -0 0 0 1 1 1 1 2 1 2 2 1 1 1 1 1 3 5 5 5 6 6 5 5
1 2 3 4 4 3 2 2 2 2 1 0 -1 -2 -3 -3 -2 -3 -3 -2 -2 -1 -1 -0 0 1 1 1 1 1 1 1 1 0 0 -0 -0 0 2 3 3 3 2 2
3 2 1 2 0 -0 0 -1 -1 -1 -1 -2 -3 -3 -4 -4 -4 -4 -3 -3 -2 -2 -2 -2 -1 -1 -0 -0 -0 0 0 0 0 1 0 0 -0 -1 -1 -1 -1 -1 -1 -2
3 1 0 -1 -1 -1 -2 -3 -3 -3 -4 -4 -4 -5 -4 -5 -5 -6 -5 -5 -4 -4 -4 -4 -4 -3 -2 -2 -3 -2 -2 -2 -2 -2 -2 -2 -1 -2 -3 -3 -3 -3 -4 -4
2 -1 -1 -2 -3 -3 -3 -4 -5 -5 -5 -5 -5 -6 -5 -6 -7 -6 -6 -6 -6 -6 -5 -6 -6 -5 -5 -4 -3 -3 -3 -3 -3 -4 -4 -5 -5 -5 -6 -5 -5 -5 -6 -6
-2 -2 -2 -3 -3 -3 -4 -5 -5 -6 -6 -7 -7 -7 -8 -8 -8 -8 -7 -7 -7 -7 -7 -7 -7 -7 -7 -6 -6 -5 -5 -5 -5 -5 -6 -6 -7 -7 -7 -7 -7 -7 -8 -8
-3 -2 -3 -3 -4 -4 -5 -6 -6 -6 -7 -8 -8 -8 -9 -9 -8 -8 -8 -8 -8 -8 -8 -8 -8 -8 -8 -8 -7 -7 -7 -7 -7 -7 -7 -7 -8 -8 -8 -8 -8 -8 -8 -8
-4 -5 -5 -5 -5 -6 -6 -7 -7 -9 -9 -9 -9 -9 -9 -9 -9 -9 -9 -9 -9 -9 -9 -9 -9 -9 -8 -8 -8 -8 -8 -8 -8 -8 -8 -8 -9 -9 -9 -9 -9 -9 -9 -9
-5 -5 -6 -6 -7 -7 -7 -8 -9 -10 -10 -10 -10 -10 -10 -10 -10 -10 -10 -10 -9 -10 -10 -10 -9 -9 -9 -9 -9 -9 -9 -9 -9 -9 -9 -9 -10 -9 -10 -10 -10 -10 -10 -11
-7 -7 -7 -8 -9 -10 -10 -10 -10 -10 -10 -11 -11 -11 -11 -11 -11 -11 -11 -11 -11 -11 -11 -10 -10 -10 -10 -10 -10 -10 -10 -10 -10 -10 -10 -10 -11 -11 -11 -12 -12 -13 -13 -14
-9 -8 -8 -9 -10 -11 -12 -11 -11 -11 -11 -11 -11 -11 -11 -11 -11 -11 -12 -12 -11 -11 -12 -14 -13 -13 -13 -12 -12 -11 -11 -11 -11 -12 -12 -12 -13 -13 -13 -14 -15 -17 -21 -23
-11 -11 -11 -11 -11 -11 -11 -11 -11 -11 -12 -12 -12 -12 -12 -12 -12 -12 -12 -13 -14 -18 -21 -25 -24 -23 -21 -18 -17 -17 -15 -14 -14 -14 -14 -14 -15 -16 -18 -20 -22 -22 -23 -24
-12 -11 -12 -12 -12 -12 -12 -12 -12 -12 -12 -12 -12 -12 -12 -16 -22 -25 -27 -30 -32 -29 -26 -25 -25 -26 -24 -22 -21 -21 -20 -20 -20 -19 -19 -19 -19 -20 -20 -21 -21 -22 -22 -23
-12 -12 -12 -12 -12 -12 -12 -12 -12 -12 -13 -13 -14 -18 -20 -20 -21 -26 -30 -31 -31 -28 -26 -26 -28 -27 -26 -25 -24 -24 -23 -23 -22 -22 -21 -21 -21 -21 -21 -21 -21 -22 -22 -22
-12 -12 -12 -12 -12 -12 -13 -13 -13 -13 -14 -17 -19 -19 -19 -20 -24 -27 -30 -32 -32 -30 -28 -28 -29 -29 -27 -26 -26 -25 -25 -25 -25 -24 -24 -23 -23 -22 -22 -22 -22 -23 -24 -24
-12 -12 -13 -13 -13 -14 -15 -17 -19 -19 -19 -19 -19 -18 -18 -18 -18 -23 -26 -26 -27 -28 -27 -28 -29 -28 -28 -27 -27 -27 -27 -27 -27 -27 -27 -26 -26 -25 -25 -25 -26 -27 -27 -28
-13 -14 -14 -14 -14 -14 -15 -15 -15 -16 -16 -16 -17 -18 -19 -20 -21 -23 -25 -23 -23 -23 -25 -27 -27 -28 -28 -27 -27 -27 -28 -27 -27 -28 -28 -28 -28 -28 -28 -28 -28 -28 -29 -29
-12 -12 -13 -13 -13 -14 -14 -14 -14 -15 -16 -16 -16 -17 -18 -19 -21 -21 -21 -20 -21 -21 -21 -22 -22 -23 -24 -25 -25 -25 -25 -26 -26 -26 -27 -27 -27 -26 -27 -27 -28 -28 -28 -28
-12 -13 -13 -13 -13 -14 -14 -14 -14 -15 -15 -16 -16 -17 -17 -19 -19 -19 -20 -20 -20 -20 -20 -21 -21 -21 -22 -22 -22 -23 -23 -24 -24 -24 -24 -25 -25 -26 -26 -26 -26 -27 -27 -27
-13 -14 -14 -14 -14 -15 -16 -17 -15 -15 -16 -16 -17 -17 -18 -19 -19 -20 -20 -20 -20 -20 -20 -21 -21 -21 -21 -21 -22 -22 -23 -22 -23 -24 -24 -24 -25 -26 -26 -26 -27 -27 -27 -27

GFSNGP_850_dewp_084.txt.gz
Dewpoint
2 1 2 2 2 2 3 3 4 2 3 2 3 6 7 7 5 6 5 6 7 8 9 9 9 9 9 9 8 8 8 8 7 7 7 7 7 7 7 8 8 8 8 8
3 0 -0 2 -1 -2 -1 -0 2 2 3 1 2 7 7 5 4 4 4 3 4 5 7 8 9 9 9 9 9 9 9 9 9 9 9 8 8 8 8 8 8 8 8 8
1 -1 1 -0 1 3 2 2 3 5 3 4 6 7 7 5 3 2 2 1 1 2 3 5 7 8 9 9 9 9 9 9 9 9 9 9 9 9 9 9 9 9 9 9
2 0 -1 -5 3 4 4 3 1 4 5 4 5 3 2 2 2 0 -0 -1 -1 0 1 3 4 7 7 7 8 9 9 8 9 9 9 9 9 9 9 9 9 9 9 9
1 2 -2 -2 4 3 3 3 3 4 4 4 3 1 0 0 -0 -0 -1 -1 -0 0 0 2 4 5 6 7 7 7 8 7 8 8 8 8 8 9 9 9 9 9 9 8
1 2 -0 -5 3 3 4 5 3 4 5 4 4 4 0 -1 -1 -0 -0 -0 1 1 1 1 1 2 3 3 4 5 6 6 6 7 7 7 8 7 8 8 8 8 8 8
2 1 1 1 3 3 6 5 0 1 1 0 0 -0 -2 -2 -3 -2 -2 -1 0 1 1 0 0 2 2 1 2 1 1 1 2 2 4 5 5 5 6 6 7 7 6 6
2 3 2 3 3 4 4 1 -0 -1 -1 -2 -2 -3 -4 -4 -4 -4 -3 -2 -1 -0 -0 -0 0 0 0 0 0 1 0 1 0 0 0 1 2 3 4 5 5 5 5 4
1 2 2 0 1 -0 0 -1 -0 -1 -2 -2 -3 -4 -5 -5 -5 -5 -4 -4 -2 -2 -1 -1 -1 -1 -0 -1 -0 0 0 0 1 1 0 -0 -0 -0 0 1 2 2 2 1
3 1 -0 -2 -2 -3 -3 -3 -3 -3 -3 -4 -4 -5 -5 -5 -5 -4 -4 -4 -4 -3 -3 -3 -2 -2 -1 -1 -1 -1 -1 -1 -1 -1 -1 -1 -1 -1 -2 -2 -2 -2 -2 -2
2 1 -1 -3 -3 -4 -4 -4 -4 -4 -5 -5 -5 -6 -7 -7 -7 -7 -6 -5 -5 -5 -5 -5 -5 -4 -4 -3 -3 -2 -3 -3 -3 -3 -3 -3 -4 -4 -4 -5 -4 -4 -5 -5
-0 -1 -2 -4 -5 -5 -5 -6 -5 -5 -6 -6 -6 -7 -7 -8 -7 -7 -7 -7 -7 -7 -7 -7 -6 -6 -6 -5 -4 -3 -3 -3 -4 -5 -5 -5 -5 -5 -6 -6 -6 -6 -7 -7
-3 -3 -4 -5 -6 -6 -6 -7 -6 -7 -7 -7 -8 -8 -8 -8 -8 -8 -8 -8 -8 -8 -8 -7 -7 -7 -7 -7 -6 -6 -6 -6 -6 -6 -6 -7 -7 -7 -7 -7 -7 -8 -8 -8
-4 -3 -4 -5 -7 -7 -7 -7 -7 -8 -8 -9 -9 -9 -9 -9 -9 -9 -9 -9 -8 -8 -8 -8 -8 -8 -8 -8 -8 -7 -7 -7 -7 -7 -8 -8 -8 -8 -8 -8 -8 -8 -8 -8
-5 -5 -6 -6 -7 -7 -8 -8 -9 -10 -10 -10 -10 -10 -10 -10 -10 -10 -10 -9 -9 -9 -9 -9 -9 -9 -9 -9 -8 -8 -8 -8 -8 -8 -8 -8 -9 -9 -9 -9 -9 -9 -10 -10
-6 -7 -7 -8 -8 -8 -9 -9 -10 -11 -11 -11 -10 -11 -11 -11 -11 -10 -10 -10 -10 -10 -10 -10 -10 -10 -10 -10 -9 -9 -9 -9 -9 -9 -9 -10 -10 -10 -10 -10 -10 -11 -11 -11
-6 -8 -8 -9 -10 -10 -11 -11 -10 -11 -11 -11 -11 -11 -11 -11 -11 -11 -11 -11 -11 -11 -11 -11 -11 -11 -11 -11 -11 -11 -10 -10 -10 -10 -11 -11 -11 -12 -12 -13 -13 -14 -15 -17
-9 -9 -9 -10 -11 -11 -12 -11 -11 -11 -11 -12 -12 -12 -12 -12 -12 -12 -12 -12 -13 -15 -19 -24 -26 -22 -20 -18 -16 -14 -13 -12 -12 -12 -13 -13 -13 -14 -15 -17 -21 -24 -26 -26
-11 -10 -11 -11 -11 -11 -11 -11 -12 -12 -12 -12 -12 -12 -12 -13 -15 -20 -24 -25 -25 -25 -28 -29 -28 -26 -25 -24 -22 -21 -20 -19 -17 -17 -16 -17 -18 -20 -22 -23 -24 -24 -24 -25
-11 -12 -12 -12 -12 -12 -12 -12 -12 -12 -12 -12 -13 -15 -19 -22 -25 -28 -31 -32 -32 -31 -28 -28 -28 -28 -27 -26 -24 -23 -22 -22 -21 -21 -20 -21 -21 -22 -22 -23 -23 -23 -23 -24
-12 -12 -12 -12 -12 -12 -12 -12 -12 -13 -13 -16 -20 -21 -21 -22 -25 -28 -30 -32 -30 -29 -27 -28 -29 -29 -27 -27 -26 -26 -25 -24 -23 -23 -22 -23 -22 -22 -22 -22 -22 -23 -25 -25
-12 -12 -12 -12 -12 -12 -13 -13 -14 -17 -19 -20 -20 -21 -20 -20 -20 -22 -26 -28 -29 -28 -26 -27 -28 -28 -26 -25 -25 -25 -25 -25 -25 -25 -25 -25 -24 -24 -24 -25 -25 -25 -26 -27
-12 -12 -13 -13 -15 -16 -18 -19 -19 -17 -18 -18 -18 -19 -20 -22 -22 -22 -24 -23 -23 -24 -26 -26 -28 -28 -27 -27 -27 -27 -27 -27 -27 -28 -28 -28 -28 -28 -28 -28 -28 -29 -29 -29
-14 -15 -15 -15 -14 -14 -15 -15 -15 -15 -16 -16 -16 -17 -17 -19 -22 -22 -22 -22 -22 -22 -22 -23 -23 -25 -27 -27 -27 -27 -27 -27 -27 -27 -27 -27 -28 -28 -28 -28 -28 -28 -29 -29
-13 -13 -13 -13 -13 -13 -14 -14 -14 -14 -15 -15 -16 -17 -17 -18 -20 -20 -20 -20 -21 -21 -21 -21 -21 -22 -22 -23 -23 -24 -25 -25 -25 -26 -26 -26 -26 -26 -27 -27 -27 -27 -28 -28
-13 -13 -13 -13 -14 -14 -15 -16 -17 -15 -15 -16 -16 -17 -17 -18 -19 -20 -20 -20 -20 -20 -21 -21 -21 -21 -21 -22 -22 -23 -24 -24 -24 -24 -25 -25 -25 -26 -27 -27 -27 -27 -27 -27
-13 -13 -14 -14 -14 -15 -15 -17 -18 -17 -16 -16 -17 -17 -18 -19 -20 -20 -20 -20 -20 -20 -20 -21 -21 -21 -22 -22 -22 -23 -24 -25 -25 -25 -25 -25 -26 -27 -28 -28 -28 -28 -28 -29

GFSNGP_850_dewp_087.txt.gz
Dewpoint
1 1 1 1 0 0 1 -0 1 -3 -2 -2 -0 0 4 4 4 3 3 3 4 5 7 8 8 9 9 8 7 6 7 8 8 8 8 8 8 8 8 8 8 8 8 8
0 -1 -1 -1 -2 -3 -2 -1 -1 -0 2 -0 1 2 5 3 2 2 1 1 1 2 4 7 8 8 9 8 9 9 9 9 9 9 9 8 8 8 8 8 8 8 8 8
1 -1 -1 -3 -1 -2 -2 0 2 3 1 -0 4 5 4 3 1 1 -1 -1 -1 0 1 3 6 7 9 9 9 9 9 9 9 9 9 9 9 9 9 9 9 8 8 9
1 -0 -4 -4 -5 1 3 2 1 3 3 2 4 2 1 1 0 -0 -1 -2 -2 -1 0 1 3 6 7 8 9 8 8 8 8 8 8 8 8 8 8 9 8 8 9 9
2 1 -3 -2 3 1 3 2 2 2 2 2 2 -0 -1 -1 -1 -1 0 -2 -2 -1 -1 1 2 4 6 6 7 6 7 7 7 8 8 8 8 8 8 8 9 9 8 8
1 0 -1 -5 2 2 3 4 1 -0 -0 4 2 3 -1 -3 -3 -2 -1 -0 -2 -1 -0 -0 0 2 3 5 5 6 6 5 6 7 7 7 7 7 7 8 8 7 7 7
-0 0 -1 2 2 3 4 4 -1 -2 -2 -3 -2 -2 -4 -4 -4 -4 -3 -2 -1 -0 -1 -1 0 2 2 0 0 1 2 2 3 4 4 5 5 5 5 6 6 5 5 5
-0 1 1 0 1 3 2 -0 -1 -2 -3 -4 -4 -5 -5 -5 -5 -5 -5 -4 -3 -0 -1 -1 0 1 1 0 -0 0 -0 -0 -0 0 1 2 3 3 3 3 3 3 3 3
3 3 -0 -2 -2 -3 -2 -2 -2 -3 -4 -5 -5 -6 -6 -6 -6 -6 -5 -5 -4 -3 -2 -2 -1 -1 -0 -1 -1 -0 0 0 1 0 -0 -1 -0 0 1 1 2 1 1 0
-0 -1 -2 -3 -3 -4 -4 -4 -4 -5 -5 -6 -6 -7 -8 -8 -7 -6 -5 -5 -4 -4 -3 -3 -3 -3 -3 -3 -2 -2 -2 -2 -2 -2 -2 -2 -1 -2 -2 -2 -2 -2 -2 -3
0 -1 -2 -4 -5 -5 -6 -6 -5 -6 -7 -7 -7 -8 -8 -8 -8 -8 -7 -6 -6 -6 -6 -6 -5 -4 -4 -4 -4 -3 -3 -4 -4 -4 -4 -4 -4 -4 -4 -5 -5 -5 -6 -6
-2 -3 -4 -5 -6 -6 -7 -7 -7 -7 -8 -8 -8 -8 -8 -8 -8 -8 -8 -8 -7 -7 -7 -7 -7 -6 -6 -5 -5 -4 -4 -5 -5 -6 -6 -6 -6 -6 -6 -6 -6 -6 -7 -7
-3 -5 -6 -6 -7 -8 -8 -8 -9 -8 -8 -9 -9 -9 -8 -9 -8 -8 -8 -8 -8 -8 -8 -8 -8 -8 -8 -7 -7 -6 -6 -6 -7 -7 -7 -7 -7 -7 -7 -8 -8 -8 -8 -8
-4 -4 -6 -6 -8 -8 -9 -9 -9 -9 -9 -9 -9 -9 -9 -9 -9 -9 -9 -9 -9 -9 -9 -9 -9 -8 -8 -8 -8 -8 -8 -8 -8 -8 -8 -8 -8 -8 -8 -8 -9 -9 -9 -9
-6 -6 -7 -8 -8 -9 -9 -9 -9 -10 -10 -10 -10 -10 -10 -10 -10 -10 -10 -10 -10 -10 -10 -10 -9 -9 -9 -9 -9 -9 -9 -9 -9 -9 -9 -9 -9 -9 -9 -9 -9 -10 -10 -10
-7 -8 -8 -9 -9 -9 -9 -10 -11 -11 -11 -11 -11 -11 -11 -11 -11 -11 -11 -11 -11 -11 -11 -11 -10 -10 -10 -10 -10 -10 -10 -10 -10 -10 -10 -10 -10 -10 -10 -11 -11 -11 -12 -12
-7 -8 -9 -9 -10 -11 -11 -12 -11 -11 -11 -11 -11 -11 -11 -11 -11 -12 -12 -12 -14 -16 -18 -20 -20 -20 -18 -17 -16 -14 -13 -12 -11 -11 -11 -11 -12 -12 -13 -13 -15 -17 -22 -25
-10 -10 -10 -10 -11 -12 -12 -11 -11 -12 -12 -12 -12 -12 -12 -12 -13 -15 -18 -19 -18 -23 -28 -30 -29 -26 -25 -25 -23 -20 -17 -16 -15 -15 -15 -15 -15 -17 -19 -23 -25 -26 -27 -27
-10 -11 -11 -11 -11 -11 -11 -12 -12 -12 -12 -12 -12 -14 -19 -24 -27 -29 -29 -29 -29 -29 -29 -29 -29 -27 -27 -27 -24 -22 -21 -20 -19 -19 -19 -20 -21 -22 -23 -24 -24 -25 -25 -25
-11 -12 -12 -12 -12 -12 -12 -12 -12 -12 -14 -19 -21 -22 -23 -25 -27 -29 -31 -31 -30 -28 -27 -27 -27 -28 -27 -26 -25 -24 -23 -22 -21 -22 -21 -22 -22 -22 -23 -23 -24 -25 -26 -26
-12 -12 -12 -12 -12 -12 -13 -13 -14 -17 -19 -20 -21 -23 -23 -23 -23 -25 -28 -29 -29 -30 -29 -29 -30 -30 -29 -28 -27 -27 -25 -24 -24 -24 -23 -24 -24 -24 -24 -25 -25 -26 -27 -27
-12 -12 -12 -12 -13 -13 -14 -17 -20 -20 -20 -20 -20 -21 -23 -24 -25 -25 -26 -26 -27 -27 -28 -28 -29 -31 -29 -28 -27 -27 -27 -27 -27 -27 -27 -27 -27 -27 -27 -28 -28 -29 -29 -29
-12 -12 -13 -15 -18 -19 -19 -18 -18 -18 -18 -18 -18 -18 -18 -20 -23 -24 -24 -24 -24 -25 -25 -26 -27 -28 -30 -29 -29 -28 -28 -28 -28 -28 -28 -28 -28 -28 -28 -28 -28 -28 -29 -29
-14 -15 -15 -15 -14 -15 -15 -15 -15 -15 -16 -16 -16 -17 -18 -18 -20 -22 -22 -22 -21 -21 -22 -22 -22 -23 -23 -24 -25 -25 -26 -26 -26 -26 -26 -27 -26 -27 -27 -27 -27 -27 -27 -27
-13 -13 -14 -14 -14 -14 -14 -15 -15 -15 -15 -15 -16 -16 -17 -18 -19 -21 -21 -21 -21 -21 -21 -21 -21 -21 -22 -22 -22 -23 -24 -24 -24 -25 -25 -25 -25 -25 -26 -26 -26 -26 -27 -27
-13 -13 -13 -14 -14 -15 -15 -16 -17 -17 -16 -16 -16 -17 -17 -18 -20 -20 -21 -21 -20 -20 -20 -21 -21 -21 -22 -22 -22 -22 -23 -24 -24 -24 -24 -24 -25 -25 -26 -27 -27 -28 -28 -28
-13 -14 -14 -14 -14 -15 -16 -17 -19 -19 -19 -19 -18 -17 -18 -19 -20 -20 -20 -20 -20 -20 -20 -20 -21 -21 -21 -21 -21 -22 -23 -24 -24 -24 -25 -25 -25 -25 -26 -27 -28 -28 -28 -28